Other Public Products
Issued by NWS Grand Forks, ND

Home | Current Version | Previous Version | Text Only | Print | Product List | Glossary On
Versions: 1 2 3 4 5 6 7 8 9 10 11 12 13 14 15 16 17 18 19 20 21 22 23 24 25 26 27 28 29 30 31 32 33 34 35 36 37 38 39 40 41 42 43 44 45 46 47 48 49 50
000
FPUS83 KFGF 300331
OPUFGF
PRAIRIE TO PINES WEATHER ROUNDUP
NATIONAL WEATHER SERVICE EASTERN NORTH DAKOTA/GRAND FORKS ND
1000 PM CDT TUE JUL 29 2014

 **SATELLITE DATA USED TO AUGMENT SKY COVER AT AUTOMATED STATIONS**
 *****  WEATHER ACROSS EASTERN NORTH DAKOTA  *****

CITY           SKY/WX    TMP DP  RH WIND       PRES   REMARKS
GRAND FORKS    CLEAR     63  57  81 NW3       30.09R
GRAND FORKS AF CLEAR     62  60  93 NW2       30.11R
GRAND CITY NWS   N/A     64 N/A N/A MISG        N/A
BUXTON           N/A     67  62  83 CALM        N/A
DEVILS LAKE    CLEAR     66  54  63 CALM      30.12S
FARGO          CLEAR     64  55  72 CALM      30.09R
WAHPETON ARPT  CLEAR     64  52  63 CALM      30.11R
$$

 *****  WEATHER ACROSS CENTRAL AND WESTERN NORTH DAKOTA  *****

CITY           SKY/WX    TMP DP  RH WIND       PRES   REMARKS
JAMESTOWN      CLEAR     63  57  81 N3        30.13R
BISMARCK       PTCLDY    68  58  70 E7        30.14R
MINOT          PTCLDY    67  60  78 CALM      30.14R
MINOT AFB      CLEAR     64  64  99 SW2       30.13
GARRISON         N/A     67  62  84 E5        30.15R
WILLISTON      CLEAR     73  57  57 NE7       30.16R
DICKINSON      CLEAR     63  56  78 E6        30.15R
HETTINGER      PTCLDY    69  51  52 E12       30.16R
$$

 *****  OTHER OBSERVATIONS NORTHEAST NORTH DAKOTA  *****

CITY           SKY/WX    TMP DP  RH WIND       PRES   REMARKS
WALHALLA         N/A     59  59 100 CALM        N/A
LANGDON        FAIR      57  55  94 CALM      30.14R
CAVALIER       FAIR      61  57  88 W3        30.11R
GRAFTON        FAIR      64  55  72 N6        30.10R
CANDO          FAIR      63  57  82 CALM      30.14S
FORT TOTTEN      N/A     61  53  74 CALM      29.95S
ROLLA          FAIR      55  55 100 W6        30.16S
RUGBY          FAIR      63  61  94 CALM      30.14R
 ***** THE ABOVE OBSERVATIONS ARE NON NWS ARE NOT QUALITY
        CONTROLLED AND MAY MIS-REPORT RAIN FOR SNOW...
$$

 *****  OTHER OBSERVATIONS SOUTHEAST NORTH DAKOTA *****

CITY           SKY/WX    TMP DP  RH WIND       PRES   REMARKS
COOPERSTOWN    NOT AVBL
VALLEY CITY    FAIR      63  54  72 CALM      30.13R
OAKES          NOT AVBL
GWINNER        CLEAR     63  55  77 NW6       30.13R
BUFFALO          N/A     67  49  53 N5          N/A
WYNDMERE       NOT AVBL
 ***** THE ABOVE OBSERVATIONS ARE NON NWS ARE NOT QUALITY
       CONTROLLED AND MAY MIS-REPORT RAIN FOR SNOW...
$$

  *****  WEATHER ACROSS NORTHERN MINNESOTA  *****

CITY           SKY/WX    TMP DP  RH WIND       PRES   REMARKS
FLAG ISLAND    CLEAR     70  57  64 NW9       30.05R
WARROAD        CLEAR     66  54  63 W7        30.08S
ROSEAU         CLEAR     64  55  72 W5        30.08S
HALLOCK        CLEAR     66  55  68 NW5       30.09R
THF RVR FALLS  CLEAR     64  57  77 NW6       30.10R
HALSTAD          N/A     61  57  87 CALM        N/A
FOSSTON        CLEAR     57  50  77 CALM      30.11S
BAUDETTE       CLEAR     67  54  63 NW6       30.07R
WASKISH        CLEAR     66  57  72 CALM      30.07R
CROOKSTON      CLEAR     64  59  82 CALM      30.11R
$$
  *****  WEATHER ACROSS CENTRAL AND WEST MINNESOTA  *****

CITY           SKY/WX    TMP DP  RH WIND       PRES   REMARKS
BEMIDJI        CLEAR     60  54  80 W5        30.09S
PARK RAPIDS    CLEAR     61  56  83 NW5       30.10R
WADENA         CLEAR     61  55  82 CALM      30.10S
DETROIT LAKES  CLEAR     64  55  72 CALM      30.12S
MOORHEAD       CLEAR     64  61  88 CALM      30.11R
FERGUS FALLS   CLEAR     64  52  63 CALM      30.11R
ELBOW LAKE     FAIR      63  56  76 N3        30.11R
MORRIS MN      CLEAR     61  55  82 W3        30.11R
STAPLES        CLEAR     61  55  82 W3        30.09S
WHEATON        CLEAR     63  57  82 CALM      30.13R
$$
  *****  WEATHER ELSEWHERE ACROSS MINNESOTA  *****

CITY           SKY/WX    TMP DP  RH WIND       PRES   REMARKS
DULUTH         MOCLDY    58  54  86 NW7       30.06R
INTRNTL FALLS  PTCLDY    60  58  92 CALM      30.05R
ELY            FOG       54  52  94 CALM      30.06R VSB 3/4
CLOQUET        MOCLDY    57  54  88 CALM      30.08R
BRAINERD       CLEAR     65  56  72 CALM      30.08R
HIBBING        PTCLDY    62  54  74 E3        30.06R
ALEXANDRIA     CLEAR     66  54  65 NW5       30.12R
SAINT CLOUD    CLEAR     66  54  65 NW5       30.07R
MINNEAPOLIS    PTCLDY    72  54  53 NW6       30.06R
$$

  *****  WEATHER ACROSS SOUTH DAKOTA  *****

CITY           SKY/WX    TMP DP  RH WIND       PRES   REMARKS
SIOUX FALLS    PTCLDY    64  54  69 CALM      30.13R
BROOKINGS      NOT AVBL
WATERTOWN      CLEAR     64  53  67 CALM      30.13R
HURON          CLEAR     63  55  75 NE3       30.12R
SISSETON         N/A     61  56  83 W3        30.10R
ABERDEEN       CLEAR     58  55  90 CALM      30.13R
MITCHELL       CLEAR     68  54  60 CALM      30.13R
PIERRE         PTCLDY    68  54  60 NE5       30.13R
MOBRIDGE         N/A     69  56  62 E9        30.12R
RAPID CITY     MOCLDY    63  55  75 SW7       30.21F
$$

  *****  SOME WEATHER IN NEARBY STATES *****

CITY           SKY/WX    TMP DP  RH WIND       PRES   REMARKS
GLASGOW MT     CLEAR     77  48  35 E12       30.14R
GREAT FALLS MT PTCLDY    80  44  27 E7        30.13R
CHEYENNE WY    RAIN      56  55  97 N13       30.32R FOG
SCOTTSBLUFF NE LGT RAIN  66  63  90 W3        30.24R
OMAHA NE       MOCLDY    67  57  70 N3        30.13R
DES MOINES IA  PTCLDY    68  55  63 W6        30.10R
DAVENPORT IA   CLEAR     63  58  83 NW6       30.05S
CHICAGO IL     CLOUDY    68  51  54 N25G33    30.03R
EAU CLAIRE WI  LGT RAIN  61  58  90 CALM      30.05F
LA CROSSE WI   LGT RAIN  65  62  90 NW6       30.05R
$$

  *****  SOME NATIONAL WEATHER *****

CITY           SKY/WX    TMP DP  RH WIND       PRES   REMARKS
LA GUARDIA NY  PTCLDY    70  52  52 N6        29.97R
RALEIGH NC     PTCLDY    66  60  81 CALM      30.00R
ATLANTA GA     CLEAR     71  54  54 N10       30.03R
NEW ORLEANS LA PTCLDY    80  63  55 N6        30.02R
OKLAHOMA CITY  CLOUDY    76  61  59 CALM      30.09R
ALBUQUERQUE NM CLOUDY    72  64  76 SE7       30.20R
SALT LAKE CITY MOCLDY    71  62  73 N6        30.13R
LOS ANGELES CA PTCLDY    71  63  75 SW8       29.96R
BOISE ID       CLOUDY    86  46  24 S6        30.03R
SEATTLE WA     PTCLDY    80  52  37 N10       30.08R
$$

*** WEATHER ACROSS MANITOBA...SASKATCHEWAN AND ONTARIO ***
                ***ONTARIO***

CITY           SKY/WX    TMP DP  RH WIND       PRES   REMARKS
GERALDTON      PTCLDY    54  52  94 CALM      30.01S
THUNDER BAY    PTCLDY    54  48  82 SW3       30.03S
SIOUX LOOKOUT  PTCLDY    52  50  93 CALM      30.05R
TORONTO        MOCLDY    61  55  82 SW2       29.95S
BIG TROUT LK   CLOUDY    59  52  77 NW5       30.01F
PICKLE LAKE    NOT AVBL
DRYDEN         CLEAR     63  55  77 SE3       30.06R
KENORA         MOCLDY    68  57  68 NW8       30.06
$$
                *** MANITOBA***

CITY           SKY/WX    TMP DP  RH WIND       PRES   REMARKS
BRANDON        PTCLDY    64  59  82 E3        30.14R
DAUPHIN        CLEAR     64  57  77 S2        30.11S
ISLAND LAKE    PTCLDY    64  55  72 NE3       30.06R
PILOT MOUND      N/A     64  55  72 NE3         N/A
THE PAS        MOCLDY    72  61  68 W3        30.06S
THOMPSON       MOCLDY    63  59  88 CALM      30.06S
WINNIPEG       PTCLDY    61  57  88 W7        30.09S
LYNN LAKE      CLEAR     73  50  43 VRB2      30.07S
CHURCHILL      CLEAR     59  54  82 SE7       30.08R
GILLAM         CLEAR     57  54  88 S2        30.06S
$$
                ***SASKATCHEWAN***

CITY           SKY/WX    TMP DP  RH WIND       PRES   REMARKS
ESTEVAN        PTCLDY    61  55  82 N5        30.18R
KINDERSLEY     PTCLDY    68  61  77 E9        30.12S
LLOYDMINSTER   PTCLDY    72  61  68 E8        30.12R
PRINCE ALBERT  PTCLDY    70  64  83 CALM      30.14R
REGINA         CLEAR     72  59  64 E5        30.17S
YORKTON        CLEAR     70  57  64 W5        30.15S



USA.gov is the U.S. government's official web portal to all federal, state and local government web resources and services.